Weather Roundup
Issued by NWS

Home | Current Version | Previous Version | Text Only | Print | Product List | Glossary On
Versions: 1 2 3 4 5 6 7 8 9 10 11 12 13 14 15 16 17 18 19 20 21 22 23 24 25 26 27 28 29 30 31 32 33 34 35 36 37 38 39 40 41 42 43 44 45 46 47 48 49 50
000
NZUS93 KARX 271410
HRRWXR

CURRENT HOURLY OBSERVATIONS ACROSS
MUCH OF THE UPPER MISSISSIPPI VALLEY
NATIONAL WEATHER SERVICE LA CROSSE WI
900 AM CDT WED AUG 27 2014


...SOUTHEAST MINNESOTA...


CITY           SKY/WX    TMP DP  RH WIND       PRES   REMARKS
ROCHESTER      PTSUNNY   65  57  75 NE7       30.22R
ROCHESTER/MAYO CLOUDY    64  54  70 NE5       30.22S
WINONA         PTSUNNY   68  59  73 NE5       30.21S
AUSTIN         CLOUDY    63  57  82 CALM      30.21R
ALBERT LEA     CLOUDY    64  57  77 SE5       30.21R
DODGE CENTER   PTSUNNY   63  57  82 E6        30.22R
PRESTON        CLOUDY    63  60  91 CALM      30.21S
OWATONNA       CLOUDY    64  55  72 E8        30.21S
FARIBAULT      CLOUDY    66  54  63 E6        30.21S
$$

...ELSEWHERE IN MINNESOTA...


CITY           SKY/WX    TMP DP  RH WIND       PRES   REMARKS
MINNEAPOLIS    MOSUNNY   65  55  70 E8        30.21R
INTNL FALLS    SUNNY     53  49  86 CALM      30.19S
DULUTH         SUNNY     58  49  72 N6        30.21R
RED WING       MOSUNNY   66  55  68 SE7       30.20R
REDWOOD FALLS  SUNNY     64  56  75 E8        30.19R
MANKATO        PTSUNNY   64  54  68 E9        30.20S
WORTHINGTON    CLOUDY    61  57  88 SE5       30.22R
FAIRMONT       CLOUDY    61  55  82 CALM      30.20S
$$

...SOUTHWEST WISCONSIN...


CITY           SKY/WX    TMP DP  RH WIND       PRES   REMARKS
LA CROSSE      MOSUNNY   68  59  73 N6        30.19R
PRAIRIE DU CHI SUNNY     67  56  68 CALM      30.16F
BOSCOBEL       MOSUNNY   68  58  70 CALM      30.18S
LONE ROCK      MOSUNNY   70  59  68 CALM      30.18R
PLATTEVILLE    SUNNY     68  58  71 NE7       30.18F
FORT MC COY    PTSUNNY   64  56  76 CALM      30.21R
CAMP DOUGLAS   MOSUNNY   66  59  77 CALM      30.21R
VIROQUA        CLOUDY    65  56  72 E3        30.21R
WIS DELLS      MOSUNNY   64  56  74 CALM      30.20R
$$

...ELSEWHERE IN WISCONSIN...


CITY           SKY/WX    TMP DP  RH WIND       PRES   REMARKS
MILWAUKEE      MOSUNNY   68  62  81 NE7       30.16R
MADISON        PTSUNNY   65  59  81 N3        30.18R
GREEN BAY      MOSUNNY   66  55  67 CALM      30.19R
EAU CLAIRE     MOSUNNY   64  57  78 NE6       30.20S
BLACK RVR FLS  FAIR      65  57  75 CALM      30.21R
MEDFORD        SUNNY     59  55  86 NW3       30.23R
WAUSAU         SUNNY     63  55  75 S3        30.20R
WIS RAPIDS     SUNNY     66  53  63 SE3       30.21S
MARSHFIELD     PTSUNNY   64  55  72 CALM      30.21R
RICE LAKE      SUNNY     61  52  72 CALM      30.24R
$$

...NORTHEAST IOWA...


CITY           SKY/WX    TMP DP  RH WIND       PRES   REMARKS
WATERLOO       MOSUNNY   68  57  68 E8        30.17R
DUBUQUE        MOSUNNY   68  59  73 NE5       30.18S
DECORAH        PTSUNNY   63  59  88 N3        30.19F
MASON CITY     CLOUDY    64  58  80 E3        30.20F
CHARLES CITY   MOSUNNY   66  57  72 NE7       30.19F
OELWEIN        MOSUNNY   68  57  68 E8        30.19R
$$

...ELSEWHERE IN IOWA...


CITY           SKY/WX    TMP DP  RH WIND       PRES   REMARKS
DES MOINES     CLOUDY    69  63  81 E6        30.15R
IOWA CITY      CLOUDY    68  62  81 VRB6      30.17R
FORT DODGE     PTSUNNY   66  61  82 E10       30.17F
MARSHALLTOWN   PTSUNNY   66  61  84 E7        30.16S
CEDAR RAPIDS   CLOUDY    67  62  84 E6        30.16S
$$

...NORTHERN ILLINOIS...


CITY           SKY/WX    TMP DP  RH WIND       PRES   REMARKS
CHICAGO-OHARE  MOSUNNY   74  60  61 NE5       30.14S
DUPAGE         SUNNY     72  63  73 E8        30.14S
CHICAGO-MIDWAY MOSUNNY   75  63  66 E10       30.14S
MOLINE         PTSUNNY   72  61  68 E10       30.14S
ROCKFORD       MOSUNNY   72  58  61 E8        30.16S
STERLING       PTSUNNY   70  61  73 E8        30.16S
PEORIA         MOSUNNY   76  67  73 E8        30.13R
$$

NOTE: "FAIR" INDICATES FEW OR NO CLOUDS BELOW 12,000 FEET WITH NO
SIGNIFICANT WEATHER AND/OR OBSTRUCTIONS TO VISIBILITY. WIND
SPEEDS ARE IN MILES-PER-HOUR.



USA.gov is the U.S. government's official web portal to all federal, state and local government web resources and services.